Powrót do katalogu

FENGYUN 1C DEB

AktywnyPO
NORAD 30163·DEBRIS·🇨🇳 China

Wystrzelony May 10, 1999 z Taiyuan Satellite Launch Center

Loading…

Następne Przeloty (najbliższe 24 godziny)

TLE

ŚwieżeSource: Space-Track

Epoka: Sep 14, 2026, 05:00 UTC

1 30163U 99025TU  26257.20846531  .00001056  00000-0  13659-2 0  9997
2 30163  98.7038 338.7985 0368586 257.9579 124.9336 13.39408733956327

Śledź FENGYUN 1C DEB w czasie rzeczywistym z AllMySat

Download on the App Store